Temperature
21 20 19 20 25 28 28 28 28 28 27 26 26 26 26 26 26 24 21 20 20 20 19 19 19 19 19 19 19 19 19 19 19 19 19 19 19 19 19 19 18 19 19 19 18 18 18 18 18
20 20 20 23 28 28 27 28 28 27 27 26 26 26 26 25 23 22 21 20 20 20 19 19 19 19 19 19 19 19 19 19 19 19 19 19 19 19 19 18 19 19 19 18 18 18 18 18 18
20 20 23 28 28 28 28 28 28 27 26 26 26 26 25 24 22 21 20 20 20 20 19 19 19 19 19 19 19 19 19 19 19 19 19 19 19 19 18 18 18 19 19 18 18 18 18 18 18
20 22 26 28 28 28 28 28 28 28 27 26 26 26 24 22 22 21 20 20 20 20 20 19 20 20 19 19 19 19 19 19 19 19 19 19 19 18 18 18 18 19 18 18 18 18 18 18 18
22 26 28 29 29 29 29 28 28 28 27 27 26 26 24 21 21 21 20 20 20 20 20 19 20 20 19 19 19 19 19 19 19 19 19 19 19 18 18 18 18 18 18 18 18 18 18 18 18
26 28 29 29 29 29 29 28 28 28 27 26 26 26 23 21 21 21 21 20 21 20 20 19 20 20 20 19 19 19 19 19 19 19 19 19 19 19 18 18 18 18 18 18 18 18 18 18 18
27 29 29 29 29 29 29 28 28 28 27 27 26 26 23 22 21 21 21 20 20 20 20 20 19 19 20 20 19 19 19 19 19 19 19 19 19 19 19 18 18 18 18 18 18 18 18 18 18
27 30 30 30 29 29 29 28 27 27 27 26 26 26 25 22 21 21 21 21 20 20 20 20 20 19 19 19 19 19 19 19 19 19 19 19 19 18 18 18 18 18 18 18 18 18 18 18 18
26 30 30 30 30 29 29 29 27 26 26 25 25 25 24 22 22 21 21 21 20 20 20 20 20 20 19 19 19 19 19 19 19 19 19 19 18 18 18 18 18 18 18 18 18 18 18 18 18
28 30 30 30 30 30 29 29 28 27 27 26 25 24 23 22 22 22 22 21 21 20 20 20 20 20 19 19 19 19 19 19 18 18 18 18 18 18 18 18 18 18 18 18 18 18 18 18 18
29 30 30 30 30 29 29 29 28 28 28 27 26 24 23 23 22 22 22 22 21 21 20 20 20 19 19 19 19 19 19 19 18 19 18 18 18 18 18 18 18 18 18 18 18 18 18 18 18
30 30 30 30 29 29 29 29 28 28 28 27 26 24 24 23 23 23 22 22 21 21 20 20 20 19 19 19 19 19 19 19 19 18 18 18 18 18 18 18 18 18 18 18 18 18 18 18 18
30 30 30 30 29 29 29 29 29 28 27 26 25 24 24 24 23 23 22 22 21 21 20 20 20 19 19 19 19 19 19 19 19 19 18 18 18 18 18 18 18 18 18 18 18 18 18 18 18
31 30 30 30 30 29 30 30 29 28 27 26 25 25 24 24 23 23 22 21 21 21 20 20 20 19 19 19 19 19 19 19 19 18 18 18 18 18 18 18 18 18 18 18 18 18 18 18 18
30 31 31 31 30 30 30 30 30 28 27 26 26 25 24 24 23 23 22 22 21 21 20 20 20 19 19 19 19 19 19 19 19 19 18 18 18 18 18 18 18 18 18 18 18 18 18 18 18
31 31 31 31 31 30 30 30 30 27 27 27 26 25 24 23 23 23 22 22 21 21 21 20 20 19 19 19 19 19 19 19 19 18 18 18 18 18 18 18 18 18 18 18 18 18 18 18 18
31 31 31 31 31 31 31 30 30 28 27 27 26 26 25 24 23 23 22 22 21 21 21 20 20 20 19 19 19 19 19 19 19 18 18 18 18 18 18 18 18 18 18 18 18 18 18 18 18
31 31 31 31 31 31 31 31 31 29 28 28 27 26 25 24 24 23 22 22 21 21 21 20 20 20 20 19 19 19 19 19 19 19 18 18 18 18 18 18 18 18 18 18 18 18 18 17 17
31 31 31 31 31 31 31 31 31 30 29 28 27 26 26 25 24 23 22 22 21 21 21 20 20 20 20 19 19 19 19 19 19 18 18 18 18 18 18 18 18 18 18 18 18 18 17 17 17
31 31 31 31 31 31 31 31 31 30 29 29 28 27 26 25 24 23 22 22 21 21 21 21 20 20 20 20 19 19 19 19 19 18 18 18 18 18 18 18 18 18 18 18 18 17 17 17 17
31 31 31 31 31 31 31 31 31 31 29 28 28 27 27 26 25 24 23 22 21 21 21 20 20 20 20 19 19 19 19 19 19 18 18 18 18 18 18 18 18 18 18 18 17 17 17 17 17
31 31 31 30 30 31 31 31 31 31 30 29 28 28 27 26 25 24 23 22 22 21 21 21 21 20 20 19 19 19 19 19 19 18 18 18 18 18 18 18 18 18 17 17 17 17 17 17 17
31 31 31 31 31 31 31 31 32 31 30 30 29 28 28 27 25 24 23 22 22 21 21 21 21 20 20 19 19 19 19 19 19 18 18 18 18 18 18 18 18 17 17 17 17 17 17 17 17
31 31 30 31 31 30 31 31 31 32 31 31 30 28 27 26 25 24 23 22 22 21 21 20 21 20 20 20 19 19 19 19 19 18 18 18 18 18 18 18 18 17 17 17 17 17 17 17 17
31 30 30 29 30 30 31 30 31 32 31 31 30 28 27 26 25 24 23 22 22 21 21 21 21 20 20 19 19 19 19 19 18 18 18 18 18 18 18 17 17 17 17 17 17 17 17 17 17
30 31 30 29 29 31 30 30 31 31 30 29 29 28 27 26 26 25 23 23 22 21 21 21 21 20 20 19 19 19 19 19 18 18 18 18 18 18 17 17 17 17 17 17 17 17 17 17 17
30 31 32 31 30 30 31 31 31 31 30 29 29 27 27 26 25 24 23 23 22 21 21 21 20 20 20 19 19 19 19 19 18 18 18 18 18 17 17 17 17 17 17 17 17 17 17 17 16
31 31 31 30 29 29 30 30 31 30 30 29 29 27 26 25 25 24 24 23 22 21 21 20 20 20 19 19 19 19 19 19 19 18 18 18 17 17 17 17 17 17 17 17 17 16 16 16 16
30 30 30 30 30 29 29 30 31 30 30 29 28 27 26 25 25 24 23 23 22 21 21 20 20 20 19 19 19 19 19 19 18 18 18 18 17 17 17 17 17 17 17 17 17 16 16 16 16
30 30 30 29 29 29 29 30 30 30 30 29 28 26 25 25 24 24 23 22 22 21 21 20 20 20 19 19 19 19 18 18 18 18 18 18 17 17 17 17 17 17 16 16 16 16 16 16 15
Wind_Speed
11 9 5 4 3 3 9 8 7 6 6 7 6 4 5 7 6 5 4 5 6 7 8 10 9 9 10 10 11 11 11 11 11 11 10 10 10 10 9 9 10 10 10 10 11 11 11 11 11
8 6 5 4 1 6 9 8 9 9 6 4 5 5 6 7 6 6 5 6 6 7 8 9 9 9 10 10 11 11 11 11 10 10 10 9 9 9 9 9 10 9 9 9 10 10 10 10 10
6 5 3 1 5 7 8 8 8 7 6 4 4 5 5 5 5 4 6 7 7 7 8 10 9 9 10 10 10 10 10 10 10 10 9 9 9 8 8 8 8 8 8 8 8 9 9 9 8
4 4 2 2 8 8 7 6 5 5 6 5 4 6 6 6 4 6 9 7 8 8 8 10 8 9 10 11 10 10 10 9 9 9 9 8 8 7 7 7 7 7 7 7 7 8 8 7 7
4 2 2 5 8 7 6 6 4 4 5 5 5 7 7 6 7 9 9 8 8 8 8 10 10 9 10 11 10 10 9 9 9 8 8 7 7 7 6 6 6 6 6 7 7 7 7 6 6
3 2 3 7 8 6 6 4 4 6 6 5 5 7 7 6 8 9 9 8 8 8 8 11 12 11 10 10 10 9 9 8 8 8 7 7 7 7 6 5 5 6 6 6 6 6 6 7 7
3 2 5 6 6 6 5 4 4 5 5 5 4 6 7 8 8 8 8 8 8 8 8 8 10 12 11 11 10 9 8 7 7 6 6 6 6 6 6 5 5 5 5 5 6 5 6 6 7
3 1 4 6 5 6 4 3 4 4 5 5 2 4 7 9 9 9 8 8 7 7 7 7 8 8 9 10 11 9 8 7 7 6 6 6 6 6 6 5 5 5 4 5 5 5 5 5 7
3 0 6 7 5 5 3 3 3 3 5 4 4 5 8 12 11 10 8 8 8 7 6 6 7 7 7 8 10 10 9 8 7 6 7 5 5 5 5 5 5 4 4 4 4 4 5 6 8
2 3 6 5 4 4 3 2 3 3 5 5 6 8 10 12 11 10 9 8 8 8 7 6 6 6 6 6 7 6 6 7 4 4 4 3 3 3 3 6 5 5 4 5 5 5 7 8 6
1 2 3 3 4 3 3 3 3 3 3 4 7 10 11 11 10 9 8 8 7 8 7 6 5 5 5 5 5 4 4 5 5 4 3 2 2 3 2 2 5 5 5 4 5 6 4 3 2
1 1 2 2 2 2 3 4 4 2 4 5 7 10 11 10 9 8 8 7 7 7 7 6 6 4 4 4 4 4 3 3 3 4 2 2 2 1 2 1 1 2 2 2 2 2 2 2 2
2 1 1 0 1 1 3 3 4 4 4 6 8 9 10 9 9 8 8 8 8 7 7 6 6 5 4 3 2 3 3 3 4 3 2 1 1 1 1 1 1 0 1 2 2 1 2 2 2
1 1 1 1 2 2 3 3 3 5 6 7 8 9 9 8 8 9 8 8 8 7 6 6 6 6 5 4 3 2 3 3 2 2 2 1 1 1 1 1 0 0 0 1 1 1 2 2 2
2 2 3 3 2 2 2 3 4 6 7 8 8 8 8 8 8 8 9 8 8 8 7 7 7 6 5 4 3 3 3 3 2 2 2 1 1 1 0 0 0 1 1 1 1 1 1 2 2
4 4 2 3 2 2 4 2 5 7 7 8 8 8 8 7 7 7 8 8 8 8 8 6 5 6 6 4 3 2 2 2 2 2 2 1 1 1 1 0 0 0 0 1 1 1 1 1 1
5 2 0 2 3 2 3 1 4 7 7 7 8 8 8 8 8 8 8 8 8 8 8 7 6 6 5 5 4 3 3 2 1 1 1 1 1 1 1 0 0 1 0 0 1 1 0 1 0
3 3 1 1 1 3 3 1 3 6 7 7 8 8 8 8 8 9 8 8 8 7 7 8 7 7 6 5 4 3 2 2 2 1 1 1 2 1 1 1 0 1 0 0 0 1 0 1 1
5 5 3 1 0 3 3 2 2 6 8 8 9 8 8 8 8 9 9 9 9 8 8 8 7 7 6 5 5 4 3 2 2 1 1 1 1 2 1 1 1 1 1 1 1 1 2 1 0
6 6 4 1 1 3 4 4 2 5 8 8 9 9 9 9 9 9 9 9 9 9 9 8 8 7 6 5 4 3 2 2 2 1 1 1 2 2 2 1 1 1 1 1 1 1 1 1 1
7 6 5 4 3 5 5 4 4 5 7 8 8 9 9 10 10 11 10 10 10 10 9 8 8 7 6 6 5 4 3 3 3 3 2 2 2 2 1 1 1 1 2 1 1 2 2 2 1
6 4 5 5 6 4 4 4 4 5 7 8 9 9 9 10 10 11 11 11 10 10 9 9 8 7 6 6 5 5 4 4 3 2 2 3 2 2 2 2 2 2 1 1 2 1 2 2 2
5 4 5 6 8 8 6 6 2 5 6 6 8 9 9 9 10 10 10 10 9 9 9 9 8 8 7 6 5 5 5 4 3 3 3 3 3 3 2 2 2 2 2 2 1 1 2 2 2
5 5 5 7 8 8 5 6 3 3 3 4 6 7 8 8 9 10 10 10 9 9 8 9 9 8 7 7 6 6 5 4 4 4 4 4 3 3 3 3 2 2 2 2 2 2 2 2 2
8 8 6 6 7 5 3 5 3 1 0 2 4 6 7 8 9 10 10 10 9 9 9 9 9 8 8 8 7 6 6 5 5 5 4 4 3 2 2 2 3 2 2 2 2 2 1 1 2
9 10 7 6 6 4 4 5 1 2 1 1 3 5 6 7 8 9 10 10 9 9 8 8 9 8 8 8 7 6 6 5 3 3 3 3 3 2 2 3 3 2 2 2 2 2 1 1 2
8 9 9 8 8 7 4 3 2 3 3 3 4 5 6 6 8 9 10 10 9 9 9 8 8 8 8 8 7 6 6 4 3 3 3 3 2 2 2 3 2 2 2 2 2 1 1 1 1
8 7 7 8 6 7 5 5 3 2 3 3 4 4 5 6 7 8 9 9 8 8 8 8 8 7 7 7 6 6 6 5 4 4 2 2 2 2 2 2 2 2 2 2 3 2 1 2 2
8 8 8 7 7 7 6 3 2 1 2 3 4 4 5 6 7 8 8 8 8 8 8 8 8 7 7 6 6 5 5 5 5 4 4 3 3 4 3 3 3 3 3 3 3 3 2 3 2
9 10 10 9 7 7 8 3 5 2 2 2 3 4 4 5 7 8 8 8 8 8 8 8 8 7 6 6 6 5 5 5 5 5 4 4 3 3 4 4 3 3 3 3 3 3 3 3 3
Wind_Direction
179 181 200 227 227 102 63 57 54 59 55 50 46 43 45 36 29 67 93 113 116 121 120 124 119 125 127 126 123 120 120 121 119 122 125 125 126 128 131 136 136 133 132 136 141 143 144 145 148
173 183 221 240 18 71 66 57 56 53 67 71 60 61 65 63 58 88 110 115 124 122 124 120 123 128 126 122 122 121 119 118 119 120 123 125 126 127 130 133 132 133 136 139 144 147 147 146 150
177 219 260 312 53 54 61 57 62 66 68 67 65 53 53 63 76 93 108 126 127 121 121 118 131 130 126 123 121 117 116 118 121 121 121 123 125 129 130 128 131 135 139 141 144 148 148 147 148
207 227 235 72 64 57 56 57 65 74 69 59 75 79 73 57 73 102 117 128 122 120 120 117 129 132 130 125 122 122 120 119 121 120 118 119 121 121 125 127 132 139 143 145 147 145 146 150 155
239 256 111 79 70 63 60 60 52 55 62 71 82 91 87 74 91 110 121 123 120 116 112 112 119 128 131 127 125 125 123 120 119 120 120 119 119 120 124 127 135 141 143 146 148 147 150 151 151
247 254 64 70 73 72 68 66 66 68 83 86 94 97 90 104 110 118 121 122 116 112 109 112 121 125 128 128 126 126 122 120 120 119 119 119 118 119 124 134 139 143 143 148 150 157 159 153 155
305 28 53 61 69 74 63 63 59 70 83 79 90 100 112 119 118 123 124 122 117 113 112 115 124 130 133 131 128 125 120 119 117 115 117 122 123 123 124 129 132 135 140 142 145 156 166 168 166
298 317 63 61 57 66 80 75 59 58 78 92 91 105 124 131 134 132 127 124 120 116 114 117 121 125 132 132 131 128 124 121 117 117 122 130 137 138 137 147 137 139 140 139 143 149 156 170 173
265 315 55 46 42 59 89 87 80 84 106 106 88 86 116 134 141 140 136 132 129 124 122 123 123 125 130 128 132 139 140 137 140 136 138 155 145 133 143 110 123 141 145 147 148 155 163 176 176
257 42 49 32 32 53 87 88 112 133 128 129 121 115 130 143 150 151 147 145 142 138 136 129 128 131 135 132 134 139 135 129 128 111 122 129 114 110 103 122 137 147 155 164 162 176 192 208 183
265 21 36 36 40 56 96 109 131 144 129 145 147 146 149 154 158 158 155 152 146 142 139 139 135 133 130 129 135 134 135 135 138 125 124 117 125 122 114 122 143 158 172 173 163 191 191 177 157
240 330 331 4 36 80 98 110 111 107 78 115 142 151 156 164 164 165 161 152 144 144 147 144 139 134 134 133 138 142 137 138 135 132 137 130 119 102 90 102 114 157 155 152 178 174 157 152 157
229 346 349 27 120 119 128 119 102 101 111 128 142 155 163 165 165 165 163 159 157 154 153 149 146 144 148 148 161 139 140 143 136 127 126 126 122 103 84 81 89 129 129 156 162 156 147 147 137
316 299 230 167 138 141 145 133 130 115 137 143 152 160 165 166 168 166 170 168 161 157 157 151 155 153 155 157 154 145 148 139 132 136 121 130 127 92 98 97 82 76 136 101 138 131 140 141 120
240 234 179 157 158 156 186 142 129 131 145 151 157 162 159 163 171 175 174 173 165 160 158 157 160 155 157 162 161 159 161 150 146 140 142 174 176 139 161 84 143 65 72 96 124 116 144 154 148
222 225 186 143 165 197 246 93 116 150 161 157 155 157 162 165 173 172 172 173 167 161 159 164 161 155 157 161 168 162 151 148 151 164 163 168 183 185 214 113 78 28 74 134 130 174 158 145 170
215 239 157 137 176 219 250 83 124 160 172 167 164 163 167 169 175 174 172 169 169 166 163 163 163 163 163 163 166 163 155 158 161 166 169 156 200 214 201 103 18 267 261 261 237 120 203 205 131
248 269 268 317 178 251 251 256 165 174 187 180 176 173 176 177 179 176 173 165 162 162 163 165 167 166 167 166 166 164 162 168 161 170 159 181 186 194 224 184 203 260 247 246 337 143 162 254 238
281 270 274 321 329 275 269 273 204 186 196 193 190 187 185 182 175 173 173 171 168 169 169 168 168 167 172 172 179 175 174 174 173 180 163 192 194 194 228 264 172 245 204 223 212 207 184 210 198
251 258 262 229 249 278 288 282 213 192 202 202 198 194 190 182 175 175 178 177 176 174 175 174 175 175 181 170 171 173 176 185 185 186 151 207 203 211 198 209 214 208 193 191 202 203 233 224 218
245 260 280 287 275 239 267 244 189 189 200 201 202 197 191 186 181 176 180 181 179 178 180 179 178 179 180 175 173 166 169 188 187 189 186 192 193 195 212 189 231 215 225 178 226 224 218 236 236
242 258 267 260 260 260 254 274 182 180 190 197 202 197 192 185 182 177 178 180 181 180 180 179 178 178 177 180 184 190 195 200 198 204 188 181 181 194 199 206 212 237 238 184 229 209 243 241 237
256 250 254 262 263 267 245 268 191 173 199 197 198 196 192 184 180 175 175 176 177 177 177 175 174 177 180 187 181 197 206 206 201 199 182 198 185 196 208 210 217 223 235 222 241 239 245 236 250
221 223 225 244 254 254 248 259 255 191 207 194 182 186 190 184 178 174 172 170 173 173 174 171 172 178 183 190 192 199 201 209 211 209 200 206 202 204 206 206 210 218 218 208 218 233 226 245 256
221 237 239 238 238 245 205 248 265 40 145 218 183 175 179 181 181 175 172 172 174 174 174 171 172 178 184 191 197 199 204 207 210 221 210 224 222 209 195 207 207 210 201 211 214 206 242 225 226
226 240 247 260 269 258 200 244 253 82 123 165 166 160 167 175 177 174 173 174 176 176 174 173 174 178 183 189 193 198 205 214 210 218 229 224 230 229 196 201 201 204 213 212 205 212 217 207 222
226 235 253 264 270 272 244 237 232 174 182 174 165 159 165 171 172 171 172 173 171 173 173 172 171 175 182 186 186 192 201 213 213 214 224 223 222 206 195 213 207 200 209 228 234 225 244 240 239
244 236 239 250 259 266 250 239 240 210 203 176 170 165 167 171 173 171 170 170 169 170 167 167 169 175 182 185 191 186 190 193 200 213 203 211 213 209 202 213 210 205 216 224 239 226 226 241 246
211 218 230 245 257 268 270 258 81 157 185 185 175 167 167 172 172 170 169 167 166 163 163 168 168 173 179 184 187 188 189 188 189 192 198 200 209 199 194 200 211 213 221 226 228 241 230 237 238
228 227 225 236 241 254 274 266 102 110 131 162 155 146 157 165 166 165 163 160 163 164 165 167 170 174 177 176 177 182 185 185 190 192 196 198 200 206 203 203 207 216 219 226 228 241 239 240 241
Height
1500 1501 1501 1503 1497 1492 1494 1491 1487 1489 1491 1495 1495 1494 1494 1495 1498 1507 1508 1506 1506 1506 1506 1506 1506 1507 1508 1510 1511 1512 1513 1514 1515 1517 1518 1519 1520 1521 1521 1522 1523 1524 1524 1525 1526 1528 1530 1532 1533
1502 1502 1503 1501 1492 1496 1497 1491 1491 1492 1495 1496 1496 1496 1496 1500 1503 1506 1507 1507 1507 1507 1507 1506 1506 1507 1509 1511 1512 1514 1515 1516 1517 1518 1520 1521 1521 1522 1523 1524 1524 1525 1526 1527 1528 1529 1531 1532 1534
1502 1502 1503 1494 1492 1496 1497 1492 1493 1495 1497 1497 1497 1498 1500 1504 1506 1507 1507 1507 1508 1507 1507 1505 1505 1507 1509 1511 1513 1515 1517 1518 1519 1520 1521 1522 1523 1523 1524 1525 1525 1526 1527 1529 1530 1531 1532 1533 1535
1504 1504 1500 1493 1495 1493 1492 1493 1494 1495 1497 1498 1498 1500 1504 1508 1508 1508 1508 1509 1509 1508 1507 1504 1504 1506 1509 1512 1515 1517 1518 1520 1521 1522 1523 1523 1524 1525 1525 1526 1527 1527 1529 1529 1531 1532 1533 1534 1535
1504 1501 1494 1494 1494 1493 1493 1495 1496 1495 1497 1499 1499 1501 1506 1509 1509 1510 1510 1510 1510 1510 1508 1505 1503 1505 1510 1513 1516 1518 1520 1521 1523 1523 1524 1525 1525 1526 1526 1527 1527 1528 1529 1530 1531 1532 1534 1535 1536
1503 1496 1494 1497 1495 1493 1494 1496 1496 1497 1499 1501 1501 1503 1508 1511 1511 1511 1512 1512 1512 1512 1510 1507 1506 1508 1512 1515 1518 1520 1522 1523 1524 1525 1526 1526 1526 1527 1527 1528 1528 1529 1529 1531 1532 1533 1534 1535 1536
1502 1494 1495 1494 1495 1494 1496 1497 1497 1497 1499 1502 1503 1503 1509 1512 1512 1513 1513 1514 1514 1514 1514 1513 1513 1513 1516 1518 1520 1522 1523 1524 1525 1526 1527 1527 1527 1528 1528 1528 1529 1529 1530 1531 1532 1532 1534 1535 1536
1502 1495 1492 1492 1494 1495 1496 1498 1499 1499 1501 1504 1505 1504 1508 1512 1513 1514 1515 1515 1516 1516 1517 1517 1518 1519 1521 1522 1522 1523 1525 1526 1527 1527 1528 1528 1528 1528 1528 1528 1528 1529 1530 1531 1532 1533 1534 1535 1536
1502 1495 1494 1493 1493 1494 1496 1497 1501 1502 1503 1505 1506 1507 1510 1512 1514 1515 1516 1517 1518 1518 1519 1520 1521 1522 1523 1524 1525 1526 1527 1528 1528 1529 1529 1529 1530 1529 1528 1527 1527 1528 1530 1531 1532 1533 1534 1535 1536
1500 1494 1494 1493 1492 1493 1496 1497 1500 1501 1502 1504 1507 1510 1511 1513 1514 1516 1517 1518 1519 1520 1521 1522 1523 1524 1525 1526 1527 1528 1529 1529 1530 1530 1530 1530 1530 1530 1528 1527 1526 1528 1530 1531 1532 1533 1534 1535 1537
1498 1494 1493 1494 1494 1495 1495 1497 1499 1498 1500 1503 1506 1509 1511 1513 1515 1516 1518 1519 1520 1521 1523 1524 1524 1525 1526 1527 1528 1529 1530 1530 1531 1531 1531 1531 1531 1531 1530 1529 1529 1530 1531 1533 1533 1534 1535 1536 1537
1497 1495 1495 1495 1496 1496 1495 1497 1498 1499 1501 1504 1506 1508 1511 1513 1515 1516 1518 1520 1521 1522 1524 1525 1526 1526 1527 1528 1529 1530 1531 1532 1532 1532 1532 1532 1532 1532 1531 1530 1531 1532 1533 1533 1534 1534 1535 1536 1536
1495 1495 1495 1495 1496 1496 1496 1497 1499 1501 1503 1505 1507 1509 1511 1512 1515 1517 1518 1520 1522 1523 1524 1525 1526 1526 1527 1528 1529 1531 1532 1533 1533 1533 1533 1533 1533 1533 1532 1532 1532 1532 1533 1533 1533 1534 1535 1536 1536
1495 1495 1494 1495 1495 1496 1495 1496 1498 1501 1503 1505 1507 1508 1511 1513 1515 1517 1518 1520 1522 1523 1524 1526 1526 1527 1528 1529 1530 1531 1532 1533 1534 1534 1534 1533 1534 1533 1533 1533 1533 1533 1533 1533 1534 1534 1535 1535 1536
1496 1494 1492 1493 1494 1494 1494 1495 1496 1501 1503 1504 1506 1508 1511 1513 1514 1516 1518 1520 1522 1523 1524 1526 1527 1528 1528 1529 1531 1532 1533 1534 1534 1534 1534 1534 1534 1534 1534 1534 1533 1533 1533 1533 1533 1534 1535 1535 1536
1492 1490 1492 1490 1491 1493 1494 1496 1495 1500 1501 1503 1505 1508 1510 1512 1514 1516 1518 1520 1521 1523 1524 1525 1527 1528 1529 1530 1531 1532 1533 1534 1534 1534 1534 1534 1534 1534 1534 1534 1534 1533 1533 1533 1533 1534 1535 1535 1536
1490 1492 1491 1490 1489 1490 1490 1492 1494 1498 1500 1502 1504 1507 1509 1512 1514 1515 1517 1519 1521 1522 1523 1525 1527 1528 1529 1530 1531 1532 1533 1533 1534 1534 1534 1534 1534 1534 1534 1534 1534 1533 1533 1533 1534 1534 1534 1535 1535
1494 1491 1491 1490 1487 1488 1488 1489 1491 1496 1498 1499 1502 1505 1508 1510 1513 1515 1516 1518 1520 1521 1523 1524 1526 1527 1528 1529 1530 1532 1532 1533 1534 1534 1534 1534 1534 1534 1534 1534 1533 1533 1533 1533 1532 1532 1533 1534 1534
1489 1490 1490 1488 1486 1487 1487 1487 1488 1492 1495 1497 1500 1503 1505 1508 1511 1513 1515 1517 1519 1520 1522 1523 1525 1526 1527 1529 1530 1531 1532 1533 1533 1534 1533 1533 1534 1534 1533 1534 1533 1532 1532 1532 1532 1533 1533 1533 1534
1489 1491 1489 1487 1486 1487 1486 1485 1484 1488 1491 1494 1497 1500 1502 1505 1509 1511 1514 1516 1517 1519 1520 1522 1523 1525 1527 1528 1529 1530 1531 1532 1533 1533 1533 1533 1533 1533 1533 1533 1533 1532 1532 1531 1532 1532 1533 1533 1534
1488 1489 1489 1490 1487 1485 1486 1486 1483 1484 1489 1492 1494 1497 1499 1502 1505 1509 1511 1513 1515 1517 1519 1521 1522 1524 1525 1527 1529 1529 1530 1531 1532 1532 1532 1532 1532 1532 1532 1532 1532 1532 1532 1532 1532 1532 1532 1533 1533
1489 1484 1487 1489 1491 1488 1487 1494 1483 1481 1485 1488 1491 1494 1496 1500 1503 1506 1509 1511 1513 1515 1517 1519 1521 1522 1524 1525 1527 1529 1529 1531 1531 1531 1531 1531 1531 1531 1531 1531 1531 1531 1531 1531 1531 1532 1532 1532 1532
1485 1484 1485 1486 1488 1489 1484 1490 1482 1478 1482 1483 1486 1490 1493 1497 1501 1504 1506 1509 1511 1513 1515 1517 1518 1520 1522 1524 1525 1527 1528 1529 1530 1530 1530 1530 1530 1530 1530 1530 1530 1530 1531 1530 1530 1530 1530 1531 1532
1484 1485 1485 1485 1484 1497 1487 1490 1488 1474 1477 1479 1483 1487 1491 1495 1498 1502 1504 1507 1509 1511 1513 1515 1516 1518 1520 1522 1524 1525 1526 1527 1528 1529 1529 1530 1530 1529 1529 1529 1529 1529 1529 1529 1529 1529 1529 1529 1530
1483 1488 1496 1500 1498 1494 1481 1487 1483 1472 1475 1478 1481 1485 1489 1492 1495 1499 1502 1504 1507 1509 1511 1513 1514 1516 1518 1520 1522 1523 1524 1525 1526 1527 1528 1528 1529 1529 1527 1528 1527 1528 1528 1528 1528 1528 1528 1528 1528
1481 1482 1497 1507 1502 1488 1484 1486 1475 1472 1476 1479 1481 1484 1487 1490 1493 1496 1499 1502 1504 1507 1509 1510 1512 1514 1516 1518 1519 1520 1522 1524 1525 1525 1526 1526 1527 1527 1526 1526 1526 1526 1526 1527 1527 1527 1527 1527 1527
1480 1479 1473 1482 1486 1490 1483 1478 1473 1472 1475 1478 1480 1483 1486 1488 1491 1494 1497 1500 1502 1505 1506 1508 1510 1512 1514 1516 1517 1518 1519 1521 1522 1523 1523 1524 1524 1525 1524 1525 1525 1525 1525 1525 1525 1526 1525 1525 1526
1475 1474 1479 1484 1500 1501 1488 1482 1477 1474 1474 1476 1479 1482 1485 1487 1490 1493 1496 1498 1501 1503 1505 1507 1509 1510 1512 1514 1515 1516 1516 1518 1519 1520 1521 1521 1522 1522 1522 1523 1523 1523 1524 1524 1524 1525 1524 1524 1524
1478 1479 1479 1480 1482 1494 1496 1484 1467 1471 1472 1475 1478 1481 1484 1486 1488 1492 1495 1497 1500 1502 1504 1505 1507 1509 1511 1512 1513 1514 1515 1515 1516 1517 1518 1519 1519 1520 1520 1520 1521 1521 1522 1522 1522 1522 1522 1522 1522
1471 1472 1475 1485 1488 1485 1487 1481 1467 1470 1472 1475 1477 1481 1483 1485 1488 1491 1493 1496 1499 1501 1502 1504 1505 1507 1509 1510 1511 1512 1513 1514 1515 1515 1516 1517 1517 1518 1518 1518 1518 1519 1519 1519 1519 1520 1520 1520 1520